Location: Tauranga
(37.6860°S, 176.1670°E)
Time: 23:50:11
(UTC+13:00)

Cosmos 1825 - Pass Details

Date: 24 January 2019
Orbit: 505 x 509 km, 82.5° (Epoch: 17 February)

Event Time Altitude Azimuth Distance (km) Brightness Sun altitude
Rises 20:57:35 0° 185° (S) 2,649 6.3 -4.9°
Reaches altitude 10° 20:59:45 10° 181° (S) 1,754 5.3 -5.3°
Maximum altitude 21:03:35 66° 98° (E) 564 2.2 -5.9°
Drops below altitude 10° 21:07:21 10° 15° (NNE) 1,726 4.4 -6.6°
Sets 21:09:28 0° 12° (NNE) 2,602 5.4 -6.9°
